TimeEST,TemperatureF,Dew PointF,Humidity,Sea Level PressureIn,VisibilityMPH,Wind Direction,Wind SpeedMPH,Gust SpeedMPH,PrecipitationIn,Events,Conditions,WindDirDegrees,DateUTC
12:15 AM,32.0,28.4,87,30.51,10.0,Calm,Calm,-,N/A,,Clear,0,2013-01-19 05:15:00
12:35 AM,31.6,27.9,86,30.51,10.0,Calm,Calm,-,N/A,,Clear,0,2013-01-19 05:35:00
12:55 AM,31.5,28.4,88,30.51,10.0,Calm,Calm,-,N/A,,Clear,0,2013-01-19 05:55:00
1:15 AM,30.9,28.4,90,30.51,10.0,Calm,Calm,-,N/A,,Clear,0,2013-01-19 06:15:00
1:35 AM,30.7,28.4,91,30.51,10.0,Calm,Calm,-,N/A,,Clear,0,2013-01-19 06:35:00
1:55 AM,30.2,28.4,93,30.52,10.0,Calm,Calm,-,N/A,,Clear,0,2013-01-19 06:55:00
2:15 AM,29.8,28.2,94,30.51,10.0,Calm,Calm,-,N/A,,Clear,0,2013-01-19 07:15:00
2:35 AM,30.0,28.4,94,30.51,10.0,Calm,Calm,-,N/A,,Clear,0,2013-01-19 07:35:00
2:55 AM,29.8,28.2,94,30.50,10.0,Calm,Calm,-,N/A,,Clear,0,2013-01-19 07:55:00
3:15 AM,29.3,28.2,96,30.50,10.0,Calm,Calm,-,N/A,,Clear,0,2013-01-19 08:15:00
3:35 AM,29.3,28.2,96,30.49,10.0,Calm,Calm,-,N/A,,Clear,0,2013-01-19 08:35:00
3:55 AM,29.5,28.4,96,30.48,10.0,Calm,Calm,-,N/A,,Clear,0,2013-01-19 08:55:00
4:15 AM,28.4,27.5,96,30.47,10.0,Calm,Calm,-,N/A,,Clear,0,2013-01-19 09:15:00
4:35 AM,29.1,28.2,96,30.47,10.0,Calm,Calm,-,N/A,,Clear,0,2013-01-19 09:35:00
4:55 AM,29.5,28.2,95,30.47,10.0,Calm,Calm,-,N/A,,Clear,0,2013-01-19 09:55:00
5:15 AM,29.3,28.0,95,30.48,10.0,Calm,Calm,-,N/A,,Clear,0,2013-01-19 10:15:00
5:35 AM,29.3,28.2,96,30.47,10.0,Calm,Calm,-,N/A,,Clear,0,2013-01-19 10:35:00
5:55 AM,28.6,27.7,96,30.48,10.0,Calm,Calm,-,N/A,,Clear,0,2013-01-19 10:55:00
6:15 AM,28.4,27.5,96,30.47,10.0,Calm,Calm,-,N/A,,Clear,0,2013-01-19 11:15:00
6:35 AM,28.9,28.0,96,30.48,10.0,Calm,Calm,-,N/A,,Clear,0,2013-01-19 11:35:00
6:55 AM,28.4,27.3,96,30.48,10.0,Calm,Calm,-,N/A,,Clear,0,2013-01-19 11:55:00
8:15 AM,32.0,30.7,95,30.48,10.0,Calm,Calm,-,N/A,,Clear,0,2013-01-19 13:15:00
8:55 AM,36.1,30.9,81,30.48,10.0,Calm,Calm,-,N/A,,Clear,0,2013-01-19 13:55:00
9:35 AM,37.4,30.9,77,30.50,10.0,Calm,Calm,-,N/A,,Scattered Clouds,0,2013-01-19 14:35:00
10:35 AM,43.3,30.6,61,30.48,10.0,East,4.6,-,N/A,,Mostly Cloudy,80,2013-01-19 15:35:00
10:55 AM,44.2,31.8,62,30.48,10.0,Calm,Calm,-,N/A,,Mostly Cloudy,0,2013-01-19 15:55:00
11:15 AM,45.9,31.8,58,30.46,10.0,Calm,Calm,-,N/A,,Scattered Clouds,0,2013-01-19 16:15:00
11:35 AM,48.2,29.3,48,30.44,10.0,Calm,Calm,-,N/A,,Scattered Clouds,0,2013-01-19 16:35:00
12:15 PM,52.0,27.9,39,30.40,10.0,Calm,Calm,-,N/A,,Clear,0,2013-01-19 17:15:00
12:35 PM,52.3,25.7,36,30.38,10.0,Calm,Calm,-,N/A,,Clear,0,2013-01-19 17:35:00
12:55 PM,53.4,26.1,35,30.37,10.0,Calm,Calm,-,N/A,,Clear,0,2013-01-19 17:55:00
1:15 PM,54.5,28.4,37,30.35,10.0,Calm,Calm,-,N/A,,Clear,0,2013-01-19 18:15:00
1:35 PM,55.8,30.2,38,30.34,10.0,Calm,Calm,-,N/A,,Clear,0,2013-01-19 18:35:00
1:55 PM,56.3,31.8,39,30.33,10.0,Calm,Calm,-,N/A,,Clear,0,2013-01-19 18:55:00
2:15 PM,57.0,32.5,40,30.32,10.0,SW,5.8,-,N/A,,Clear,230,2013-01-19 19:15:00
2:55 PM,57.9,33.8,40,30.29,10.0,WSW,4.6,-,N/A,,Clear,250,2013-01-19 19:55:00
3:35 PM,58.5,35.1,42,30.28,10.0,South,4.6,-,N/A,,Clear,190,2013-01-19 20:35:00
3:55 PM,59.0,36.7,43,30.28,10.0,SW,6.9,-,N/A,,Clear,220,2013-01-19 20:55:00
4:15 PM,58.8,37.4,45,30.27,10.0,SW,4.6,-,N/A,,Clear,220,2013-01-19 21:15:00
4:35 PM,58.5,37.0,45,30.27,10.0,Calm,Calm,-,N/A,,Clear,0,2013-01-19 21:35:00
4:55 PM,57.9,37.9,47,30.27,10.0,Calm,Calm,-,N/A,,Clear,0,2013-01-19 21:55:00
5:15 PM,56.7,38.7,51,30.27,10.0,Calm,Calm,-,N/A,,Clear,0,2013-01-19 22:15:00
5:35 PM,53.8,40.3,60,30.26,10.0,Calm,Calm,-,N/A,,Clear,0,2013-01-19 22:35:00
5:55 PM,51.1,40.8,68,30.26,10.0,Calm,Calm,-,N/A,,Clear,0,2013-01-19 22:55:00
6:15 PM,49.1,40.6,73,30.26,10.0,Calm,Calm,-,N/A,,Clear,0,2013-01-19 23:15:00
6:35 PM,49.3,41.2,74,30.25,10.0,SSE,3.5,-,N/A,,Clear,150,2013-01-19 23:35:00
6:55 PM,46.6,40.1,78,30.26,10.0,Calm,Calm,-,N/A,,Clear,0,2013-01-19 23:55:00
7:15 PM,46.9,40.3,78,30.26,10.0,Calm,Calm,-,N/A,,Clear,0,2013-01-20 00:15:00
7:35 PM,45.1,39.7,81,30.26,10.0,Calm,Calm,-,N/A,,Clear,0,2013-01-20 00:35:00
7:55 PM,45.1,39.6,81,30.26,10.0,Calm,Calm,-,N/A,,Clear,0,2013-01-20 00:55:00
8:15 PM,44.8,39.4,81,30.26,7.0,Calm,Calm,-,N/A,,Clear,0,2013-01-20 01:15:00
8:35 PM,44.2,40.1,85,30.25,10.0,SE,3.5,-,N/A,,Clear,140,2013-01-20 01:35:00
9:15 PM,43.0,39.6,88,30.25,10.0,Calm,Calm,-,N/A,,Clear,0,2013-01-20 02:15:00
9:55 PM,44.8,40.1,84,30.24,10.0,South,4.6,-,N/A,,Mostly Cloudy,180,2013-01-20 02:55:00
10:15 PM,46.9,41.0,80,30.24,10.0,South,4.6,-,N/A,,Overcast,180,2013-01-20 03:15:00
10:35 PM,46.8,41.2,81,30.24,10.0,SSW,3.5,-,N/A,,Mostly Cloudy,200,2013-01-20 03:35:00
10:55 PM,46.0,41.0,83,30.23,10.0,South,4.6,-,N/A,,Scattered Clouds,190,2013-01-20 03:55:00
11:15 PM,45.5,40.6,83,30.22,10.0,South,3.5,-,N/A,,Clear,190,2013-01-20 04:15:00
11:35 PM,45.9,41.2,84,30.20,10.0,South,4.6,-,N/A,,Clear,180,2013-01-20 04:35:00
11:55 PM,45.3,41.2,85,30.20,10.0,South,4.6,-,N/A,,Clear,180,2013-01-20 04:55:00